GW1838 Weather Reports


time (UTC)temp
C
wind
direction
speed
KPH
gust
KPH
rain 1hr
cm
rain 24hr
cm
rain mn
cm
humidity
%
barometer
mb
20260905211806 26 93 6.4 11.3 0.00 0.20 0.20 62 1009.0
20260905210806 26 109 4.8 9.7 0.00 0.20 0.20 63 1009.0
20260905210306 25 99 4.8 11.3 0.00 0.20 0.20 63 1009.0
20260905203306 25 77 8.0 11.3 0.00 0.20 0.20 63 1008.9
20260905202306 25 76 8.0 11.3 0.00 0.20 0.20 64 1009.1
20260905200805 26 93 8.0 16.1 0.00 0.20 0.20 64 1009.1
20260905200306 26 100 9.7 12.9 0.00 0.20 0.20 64 1009.1
20260905195307 26 110 4.8 9.7 0.00 0.20 0.20 65 1009.1
20260905194806 26 130 4.8 11.3 0.00 0.20 0.20 64 1009.0
20260905192306 26 137 4.8 14.5 0.00 0.20 0.20 64 1009.3
20260905191806 26 104 9.7 14.5 0.00 0.20 0.20 61 1009.3
20260905185306 26 90 3.2 9.7 0.00 0.20 0.20 61 1009.3
20260905183306 26 89 4.8 11.3 0.00 0.20 0.20 63 1009.5
20260905182306 26 75 9.7 11.3 0.00 0.20 0.20 63 1009.4
20260905175806 26 88 8.0 16.1 0.00 0.20 0.20 66 1009.5
20260905175306 26 90 9.7 16.1 0.00 0.20 0.20 65 1009.5
20260905174806 26 94 9.7 16.1 0.00 0.20 0.20 64 1009.3
20260905174305 26 94 8.0 11.3 0.00 0.20 0.20 64 1009.4
20260905172805 26 107 9.7 16.1 0.00 0.20 0.20 65 1009.4
20260905171305 27 79 8.0 12.9 0.00 0.20 0.20 64 1009.4
20260905170306 27 86 8.0 14.5 0.00 0.20 0.20 63 1009.4
20260905165307 27 107 4.8 12.9 0.00 0.20 0.20 64 1009.5
20260905164806 27 137 6.4 11.3 0.00 0.20 0.20 63 1009.5
20260905164305 27 97 8.0 12.9 0.00 0.20 0.20 64 1009.5
20260905162806 27 132 4.8 9.7 0.00 0.20 0.20 62 1009.6
20260905161306 27 98 8.0 14.5 0.00 0.20 0.20 63 1009.6
20260905160305 27 350 1.6 4.8 0.00 0.20 0.20 57 1009.8
20260905155306 26 350 3.2 4.8 0.00 0.20 0.20 62 1009.8
20260905154805 26 345 4.8 4.8 0.00 0.20 0.20 62 1009.9
20260905153305 25 350 4.8 8.0 0.00 0.20 0.20 65 1009.9
20260905151305 25 0 9.7 16.1 0.00 0.20 0.20 67 1009.8
20260905150805 25 356 9.7 14.5 0.00 0.20 0.20 67 1009.7
20260905150305 25 4 9.7 14.5 0.00 0.20 0.20 69 1009.8
20260905145307 25 22 11.3 16.1 0.00 0.20 0.20 68 1009.8
20260905143806 25 11 8.0 11.3 0.00 0.20 0.20 67 1009.6
20260905143306 25 31 8.0 16.1 0.00 0.20 0.20 68 1009.5
20260905142805 25 17 11.3 19.3 0.00 0.20 0.20 67 1009.4
20260905141805 25 18 9.7 16.1 0.00 0.20 0.20 69 1009.5
20260905140805 25 19 14.5 19.3 0.00 0.20 0.20 69 1009.4
20260905140306 24 9 11.3 19.3 0.00 0.20 0.20 70 1009.4
20260905135805 23 5 11.3 24.1 0.00 0.20 0.20 72 1009.4
20260905135307 23 22 12.9 20.9 0.00 0.20 0.20 73 1009.3
20260905133305 23 25 14.5 22.5 0.00 0.20 0.20 74 1009.4
20260905132805 23 22 16.1 22.5 0.00 0.20 0.20 74 1009.4
20260905132306 23 26 16.1 20.9 0.00 0.20 0.20 74 1009.4
20260905131305 23 25 16.1 22.5 0.00 0.20 0.20 74 1009.5
20260905125805 23 33 16.1 24.1 0.00 0.20 0.20 74 1009.3
20260905125306 23 20 16.1 24.1 0.00 0.20 0.20 74 1009.4
20260905124305 23 17 19.3 25.7 0.00 0.20 0.20 74 1009.4
20260905122807 23 14 16.1 24.1 0.00 0.20 0.20 75 1009.7
20260905121806 23 1 17.7 24.1 0.00 0.20 0.20 74 1009.6
20260905121305 23 9 20.9 29.0 0.00 0.20 0.20 74 1009.7
20260905120306 23 0 16.1 22.5 0.00 0.20 0.20 74 1009.6
20260905115306 23 3 16.1 25.7 0.00 0.20 0.20 74 1009.4
20260905114806 23 358 17.7 24.1 0.00 0.20 0.20 72 1009.5
20260905113805 23 22 16.1 25.7 0.00 0.20 0.20 71 1009.4
20260905113305 23 21 14.5 22.5 0.00 0.20 0.20 72 1009.2
20260905112306 23 359 16.1 25.7 0.00 0.20 0.20 72 1009.2
20260905111305 23 11 19.3 24.1 0.00 0.20 0.20 74 1009.2
20260905110805 23 352 20.9 24.1 0.00 0.20 0.20 75 1009.2
20260905110305 23 354 17.7 24.1 0.00 0.20 0.20 74 1009.1
20260905105306 23 354 14.5 20.9 0.00 0.20 0.20 74 1008.9
20260905104805 23 356 14.5 20.9 0.00 0.20 0.20 74 1008.9
20260905103306 23 17 16.1 27.4 0.00 0.20 0.20 74 1008.7
20260905102306 23 15 14.5 25.7 0.00 0.20 0.20 74 1008.6
20260905100805 23 3 12.9 19.3 0.00 0.20 0.20 76 1008.5
20260905100305 23 6 11.3 19.3 0.00 0.20 0.20 75 1008.5
20260905093805 24 350 16.1 19.3 0.00 0.20 0.20 76 1008.6
20260905093305 24 346 14.5 19.3 0.00 0.20 0.20 77 1008.5
20260905092306 24 21 11.3 19.3 0.00 0.20 0.20 75 1008.4
20260905091805 24 20 11.3 19.3 0.00 0.20 0.20 75 1008.4
20260905090805 24 17 11.3 19.3 0.00 0.20 0.20 76 1008.5
20260905090305 24 23 11.3 19.3 0.00 0.20 0.20 76 1008.6
20260905085806 24 27 11.3 19.3 0.00 0.20 0.20 77 1008.5
20260905085306 24 17 12.9 19.3 0.00 0.20 0.20 76 1008.5
20260905083306 24 356 11.3 19.3 0.00 0.20 0.20 76 1008.4
20260905082307 24 6 14.5 22.5 0.00 0.20 0.20 77 1008.4
20260905080805 24 354 16.1 19.3 0.00 0.20 0.20 76 1008.5
20260905073806 24 338 4.8 11.3 0.00 0.20 0.20 79 1008.7
20260905072306 24 352 3.2 9.7 0.00 0.20 0.20 77 1008.8
20260905071806 24 355 4.8 9.7 0.00 0.20 0.20 76 1008.8
20260905071305 24 347 8.0 11.3 0.00 0.20 0.20 77 1008.8
20260905070306 23 312 3.2 8.0 0.03 0.20 0.20 78 1008.9
20260905065805 23 295 1.6 4.8 0.15 0.20 0.20 81 1009.0
20260905065306 23 293 1.6 8.0 0.20 0.20 0.20 81 1009.1
20260905064806 23 304 4.8 8.0 0.20 0.20 0.20 81 1009.1
20260905062306 22 31 1.6 3.2 0.20 0.20 0.20 80 1009.1
20260905061305 22 31 0.0 1.6 0.20 0.20 0.20 77 1009.1
20260905060805 23 31 1.6 8.0 0.20 0.20 0.20 75 1009.2
20260905060305 23 29 16.1 25.7 0.18 0.18 0.18 73 1009.4
20260905054305 26 10 12.9 19.3 0.00 0.03 0.00 69 1009.0
20260905053805 26 28 9.7 14.5 0.00 0.03 0.00 71 1009.0
20260905053305 26 17 9.7 14.5 0.00 0.03 0.00 71 1009.0
20260905052806 26 12 9.7 16.1 0.00 0.03 0.00 71 1009.1
20260905051306 26 34 3.2 8.0 0.00 0.03 0.00 72 1009.2
20260905050805 26 51 4.8 9.7 0.00 0.03 0.00 74 1009.2
20260905045805 26 11 6.4 9.7 0.00 0.03 0.00 75 1009.4
20260905044305 26 23 8.0 14.5 0.00 0.03 0.00 76 1009.5
20260905043805 26 12 9.7 14.5 0.00 0.03 0.00 76 1009.6
20260905043306 26 23 9.7 14.5 0.00 0.03 0.00 76 1009.6
20260905041306 26 19 9.7 14.5 0.00 0.03 0.00 76 1009.6
20260905035307 26 353 11.3 14.5 0.00 0.03 0.03 74 1009.7
20260905034805 26 348 9.7 16.1 0.00 0.03 0.03 75 1009.7
20260905033805 27 303 4.8 9.7 0.00 0.03 0.03 76 1009.7
20260905033305 27 318 4.8 9.7 0.00 0.03 0.03 76 1009.8
20260905032805 27 313 4.8 9.7 0.00 0.03 0.03 76 1009.7
20260905032306 27 312 6.4 9.7 0.00 0.03 0.03 76 1009.7
20260905031805 27 334 4.8 8.0 0.00 0.03 0.03 77 1009.6
20260905030305 27 344 8.0 11.3 0.00 0.03 0.03 75 1009.5
20260905024805 27 353 9.7 19.3 0.00 0.03 0.03 75 1009.5
20260905023305 27 347 9.7 16.1 0.00 0.03 0.03 77 1009.5
20260905022306 27 329 4.8 8.0 0.00 0.03 0.03 78 1009.5
20260905021305 27 306 4.8 8.0 0.00 0.03 0.03 79 1009.6
20260905020805 27 300 4.8 4.8 0.00 0.03 0.03 79 1009.6
20260905020305 27 297 1.6 4.8 0.00 0.03 0.03 79 1009.7
20260905015805 27 297 0.0 3.2 0.00 0.03 0.03 79 1009.6
20260905015306 27 297 0.0 3.2 0.00 0.03 0.03 79 1009.7
20260905014805 27 297 1.6 4.8 0.00 0.03 0.03 79 1009.7
20260905014306 27 297 1.6 4.8 0.00 0.03 0.03 80 1009.7
20260905012306 27 272 3.2 4.8 0.00 0.03 0.03 80 1009.8
20260905010305 27 269 3.2 4.8 0.00 0.03 0.03 79 1009.6
20260905005805 27 272 1.6 4.8 0.00 0.03 0.03 79 1009.6
20260905003805 27 336 4.8 8.0 0.00 0.03 0.03 76 1009.3
20260905003304 27 333 4.8 9.7 0.00 0.03 0.03 76 1009.3
20260905002805 28 351 8.0 9.7 0.00 0.03 0.03 76 1009.1
20260905002306 28 350 8.0 9.7 0.00 0.03 0.03 76 1009.0
20260905001805 28 348 8.0 9.7 0.00 0.03 0.03 76 1009.0
20260905001305 28 348 8.0 9.7 0.00 0.03 0.03 76 1008.9
20260905000804 28 347 8.0 9.7 0.00 0.03 0.03 76 1009.1
20260905000305 28 346 8.0 11.3 0.00 0.03 0.03 75 1009.1
20260904235804 28 348 9.7 9.7 0.00 0.03 0.03 75 1009.1
20260904234804 28 343 8.0 9.7 0.00 0.03 0.03 76 1009.2
20260904234305 28 349 8.0 9.7 0.00 0.03 0.03 76 1009.1
20260904232306 28 349 8.0 11.3 0.00 0.03 0.03 74 1009.4
20260904230805 28 344 8.0 9.7 0.00 0.03 0.03 75 1009.5
20260904225804 28 323 3.2 4.8 0.00 0.03 0.03 75 1009.4
20260904225306 28 321 1.6 4.8 0.00 0.03 0.03 74 1009.3
20260904223304 29 346 4.8 8.0 0.00 0.03 0.03 73 1009.3
20260904222805 29 346 4.8 8.0 0.00 0.03 0.03 74 1009.3
20260904220805 29 227 3.2 4.8 0.00 0.03 0.03 72 1009.3
20260904220305 29 224 0.0 1.6 0.00 0.03 0.03 73 1009.3
20260904214805 29 212 1.6 8.0 0.00 0.03 0.03 77 1009.4
20260904214305 28 225 3.2 8.0 0.00 0.03 0.03 78 1009.5
20260904213804 28 228 4.8 11.3 0.00 0.03 0.03 79 1009.5
20260904212805 28 212 8.0 11.3 0.00 0.03 0.03 80 1009.4
20260904212306 28 189 3.2 14.5 0.00 0.03 0.03 80 1009.3